Retour au catalogue

GLOBALSTAR M032

ActifCommunicationsMEO
NORAD 25852·PAYLOAD·🇺🇸 United States

Lancé Jul 10, 1999 depuis Cape Canaveral Space Force Station

Loading…

Prochains Passages (prochaines 24 heures)

TLE

FraisSource: Space-Track

Époque: Sep 14, 2026, 08:40 UTC

1 25852U 99037B   26257.36123229 -.00000069  00000-0 -85264-4 0  9996
2 25852  51.9940 275.9733 0012251 212.3254 147.6796 11.19074047185635

Suivez GLOBALSTAR M032 en temps réel avec AllMySat

Download on the App Store